When you browse on this site, cookies collect data to enhance your experience and personalize the content and advertising you see.
Visit our Privacy Policy to learn more. By continuing to use the site, you agree to this use of cookies and data.
  • In Latvia
  • List of Countries
  • For 7 days
  • Water Temperature
  • Satellite Maps
  • Weather Map
  • Weather Widgets
  • user-avatar
    Login

    Hourly Weather Lugovskoy

    Today, 19 June, Wednesday

    Time Temperature Precipitation Wind Pressure Humidity
    00:00 +16°C° 0 mm 2 mps 745 mmHg 89%
    01:00 +16°C° 0 mm 2 mps 745 mmHg 90%
    02:00 +16°C° 0 mm 2 mps 745 mmHg 91%
    03:00 +15°C° 0 mm 2 mps 745 mmHg 92%
    04:00 +16°C° 0 mm 2 mps 745 mmHg 90%
    05:00 +17°C° 0 mm 2 mps 745 mmHg 88%
    06:00 +18°C° 0 mm 2 mps 746 mmHg 86%
    07:00 +19°C° 0.2 mm 2 mps 745 mmHg 81%
    08:00 +22°C° 0.2 mm 1 mps 745 mmHg 75%
    09:00 +23°C° 0.2 mm 1 mps 745 mmHg 70%
    10:00 +24°C° 0.8 mm 1 mps 745 mmHg 67%
    11:00 +24°C° 0.8 mm 2 mps 745 mmHg 65%
    12:00 +25°C° 0.8 mm 2 mps 745 mmHg 62%
    13:00 +25°C° 0.4 mm 2 mps 746 mmHg 61%
    14:00 +26°C° 0.4 mm 2 mps 746 mmHg 60%
    15:00 +26°C° 0.4 mm 2 mps 746 mmHg 60%
    16:00 +25°C° 0.2 mm 2 mps 746 mmHg 65%
    17:00 +25°C° 0.2 mm 2 mps 746 mmHg 70%
    18:00 +24°C° 0.2 mm 2 mps 746 mmHg 75%
    19:00 +21°C° 0 mm 3 mps 746 mmHg 78%
    20:00 +20°C° 0 mm 3 mps 747 mmHg 81%
    21:00 +18°C° 0 mm 3 mps 747 mmHg 84%
    22:00 +18°C° 0 mm 2 mps 747 mmHg 85%
    23:00 +17°C° 0 mm 2 mps 747 mmHg 86%

    Tomorrow, 20 June, Thursday

    Time Temperature Precipitation Wind Pressure Humidity
    00:00 +17°C° 0 mm 2 mps 747 mmHg 86%
    01:00 +16°C° 0 mm 2 mps 747 mmHg 87%
    02:00 +16°C° 0 mm 2 mps 748 mmHg 88%
    03:00 +16°C° 0 mm 2 mps 748 mmHg 88%
    04:00 +17°C° 0 mm 3 mps 748 mmHg 86%
    05:00 +18°C° 0 mm 3 mps 748 mmHg 84%
    06:00 +19°C° 0 mm 3 mps 749 mmHg 81%
    07:00 +21°C° 0 mm 3 mps 749 mmHg 76%
    08:00 +22°C° 0 mm 3 mps 749 mmHg 70%
    09:00 +25°C° 0 mm 3 mps 749 mmHg 64%
    10:00 +26°C° 0 mm 3 mps 749 mmHg 61%
    11:00 +26°C° 0 mm 3 mps 749 mmHg 58%
    12:00 +27°C° 0 mm 3 mps 749 mmHg 56%
    13:00 +27°C° 0.1 mm 3 mps 749 mmHg 56%
    14:00 +27°C° 0.1 mm 4 mps 749 mmHg 57%
    15:00 +27°C° 0.1 mm 4 mps 749 mmHg 57%
    16:00 +26°C° 0.1 mm 3 mps 749 mmHg 61%
    17:00 +26°C° 0.1 mm 3 mps 749 mmHg 65%
    18:00 +25°C° 0.1 mm 2 mps 750 mmHg 69%
    19:00 +23°C° 0 mm 2 mps 750 mmHg 72%
    20:00 +21°C° 0 mm 2 mps 750 mmHg 74%
    21:00 +19°C° 0 mm 2 mps 750 mmHg 76%
    22:00 +19°C° 0 mm 2 mps 750 mmHg 77%
    23:00 +18°C° 0 mm 2 mps 750 mmHg 79%

    Day after tomorrow, 21 June, Friday

    Time Temperature Precipitation Wind Pressure Humidity
    00:00 +18°C° 0 mm 2 mps 751 mmHg 80%
    01:00 +17°C° 0 mm 2 mps 751 mmHg 80%
    02:00 +17°C° 0 mm 2 mps 751 mmHg 81%
    03:00 +17°C° 0 mm 2 mps 751 mmHg 81%
    04:00 +18°C° 0 mm 2 mps 751 mmHg 80%
    05:00 +19°C° 0 mm 2 mps 752 mmHg 80%
    06:00 +19°C° 0 mm 2 mps 752 mmHg 79%
    07:00 +21°C° 0 mm 3 mps 752 mmHg 74%
    08:00 +22°C° 0 mm 3 mps 752 mmHg 69%
    09:00 +25°C° 0 mm 3 mps 752 mmHg 63%
    10:00 +26°C° 0 mm 3 mps 752 mmHg 59%
    11:00 +27°C° 0 mm 3 mps 752 mmHg 54%
    12:00 +28°C° 0 mm 4 mps 752 mmHg 49%
    13:00 +28°C° 0 mm 3 mps 752 mmHg 49%
    14:00 +28°C° 0 mm 3 mps 752 mmHg 49%
    15:00 +28°C° 0 mm 3 mps 752 mmHg 49%
    16:00 +27°C° 0 mm 2 mps 752 mmHg 54%
    17:00 +27°C° 0 mm 2 mps 752 mmHg 58%
    18:00 +26°C° 0 mm 1 mps 752 mmHg 63%
    19:00 +24°C° 0 mm 1 mps 752 mmHg 65%
    20:00 +23°C° 0 mm 1 mps 752 mmHg 68%
    21:00 +21°C° 0 mm 1 mps 752 mmHg 70%
    22:00 +18°C° 0 mm 0 mps 752 mmHg 70%
    23:00 +18°C° 0 mm 0 mps 753 mmHg 70%

    22 June, Saturday

    Time Temperature Precipitation Wind Pressure Humidity
    00:00 +18°C° 0 mm 0 mps 753 mmHg 71%
    01:00 +18°C° 0 mm 0 mps 753 mmHg 73%
    02:00 +19°C° 0 mm 1 mps 753 mmHg 75%
    03:00 +18°C° 0 mm 1 mps 753 mmHg 78%
    04:00 +20°C° 0 mm 1 mps 753 mmHg 79%
    05:00 +21°C° 0 mm 1 mps 753 mmHg 78%
    06:00 +22°C° 0 mm 1 mps 753 mmHg 76%
    07:00 +23°C° 0 mm 1 mps 753 mmHg 72%
    08:00 +24°C° 0 mm 1 mps 753 mmHg 67%
    09:00 +26°C° 0 mm 1 mps 753 mmHg 63%
    10:00 +26°C° 0.1 mm 1 mps 753 mmHg 60%
    11:00 +27°C° 0.1 mm 1 mps 753 mmHg 57%
    12:00 +26°C° 0.1 mm 0 mps 753 mmHg 53%
    13:00 +26°C° 0 mm 0 mps 753 mmHg 53%
    14:00 +26°C° 0 mm 0 mps 753 mmHg 53%
    15:00 +26°C° 0 mm 0 mps 753 mmHg 53%
    16:00 +25°C° 0 mm 0 mps 753 mmHg 56%
    17:00 +27°C° 0 mm 1 mps 753 mmHg 60%
    18:00 +27°C° 0 mm 1 mps 753 mmHg 63%
    19:00 +25°C° 0 mm 1 mps 753 mmHg 65%
    20:00 +23°C° 0 mm 1 mps 753 mmHg 68%
    21:00 +22°C° 0 mm 1 mps 753 mmHg 70%
    22:00 +21°C° 0 mm 1 mps 753 mmHg 71%
    23:00 +21°C° 0 mm 1 mps 753 mmHg 71%

    23 June, Sunday

    Time Temperature Precipitation Wind Pressure Humidity
    00:00 +19°C° 0 mm 2 mps 753 mmHg 72%
    01:00 +19°C° 0 mm 2 mps 753 mmHg 72%
    02:00 +19°C° 0 mm 2 mps 753 mmHg 72%
    03:00 +19°C° 0 mm 2 mps 753 mmHg 72%
    04:00 +20°C° 0 mm 2 mps 753 mmHg 72%
    05:00 +21°C° 0 mm 2 mps 753 mmHg 71%
    06:00 +23°C° 0 mm 2 mps 753 mmHg 71%
    07:00 +24°C° 0 mm 2 mps 753 mmHg 67%
    08:00 +26°C° 0 mm 2 mps 753 mmHg 63%
    09:00 +27°C° 0 mm 2 mps 753 mmHg 58%
    10:00 +28°C° 0 mm 2 mps 753 mmHg 55%
    11:00 +29°C° 0 mm 2 mps 753 mmHg 52%
    12:00 +29°C° 0 mm 2 mps 753 mmHg 49%
    13:00 +30°C° 0 mm 2 mps 753 mmHg 49%
    14:00 +30°C° 0 mm 3 mps 752 mmHg 49%
    15:00 +30°C° 0 mm 3 mps 752 mmHg 50%
    16:00 +29°C° 0 mm 2 mps 752 mmHg 54%
    17:00 +29°C° 0 mm 2 mps 752 mmHg 59%
    18:00 +28°C° 0 mm 2 mps 752 mmHg 64%
    19:00 +27°C° 0 mm 2 mps 752 mmHg 67%
    20:00 +25°C° 0 mm 2 mps 752 mmHg 71%
    21:00 +23°C° 0 mm 2 mps 752 mmHg 75%
    22:00 +23°C° 0 mm 2 mps 752 mmHg 77%
    23:00 +22°C° 0 mm 1 mps 752 mmHg 80%

    24 June, Monday

    Time Temperature Precipitation Wind Pressure Humidity
    00:00 +22°C° 0 mm 1 mps 752 mmHg 82%
    01:00 +22°C° 0 mm 1 mps 752 mmHg 84%
    02:00 +21°C° 0 mm 1 mps 752 mmHg 85%
    03:00 +21°C° 0 mm 1 mps 752 mmHg 86%
    04:00 +22°C° 0 mm 1 mps 752 mmHg 84%
    05:00 +23°C° 0 mm 1 mps 752 mmHg 82%
    06:00 +24°C° 0 mm 1 mps 752 mmHg 79%
    07:00 +25°C° 0 mm 1 mps 752 mmHg 76%
    08:00 +27°C° 0 mm 1 mps 752 mmHg 72%
    09:00 +26°C° 0 mm 0 mps 752 mmHg 68%
    10:00 +27°C° 0.3 mm 0 mps 752 mmHg 67%
    11:00 +27°C° 0.3 mm 0 mps 752 mmHg 65%
    12:00 +28°C° 0.3 mm 0 mps 752 mmHg 64%
    13:00 +28°C° 0.7 mm 0 mps 752 mmHg 63%
    14:00 +30°C° 0.7 mm 1 mps 751 mmHg 63%
    15:00 +30°C° 0.7 mm 1 mps 751 mmHg 63%
    16:00 +30°C° 0.2 mm 1 mps 751 mmHg 66%
    17:00 +29°C° 0.2 mm 1 mps 751 mmHg 69%
    18:00 +29°C° 0.2 mm 1 mps 751 mmHg 72%
    19:00 +27°C° 0 mm 1 mps 751 mmHg 75%
    20:00 +26°C° 0 mm 1 mps 751 mmHg 78%
    21:00 +24°C° 0 mm 1 mps 751 mmHg 81%
    22:00 +24°C° 0 mm 1 mps 750 mmHg 81%
    23:00 +23°C° 0 mm 1 mps 750 mmHg 82%
    Show more